SR1WXW Weather Reports


Display with metric or nautical units.
time (UTC)temp
F
wind
direction
speed
MPH
gust
MPH
rain 1hr
in
rain 24hr
in
rain mn
in
humidity
%
barometer
mb
20260504205804 53 22 0.0 0.0 0.00 0.00 0.00 74 1007.5
20260504205304 53 22 0.0 0.0 0.00 0.00 0.00 74 1007.3
20260504204804 54 22 0.0 0.0 0.00 0.00 0.00 74 1007.3
20260504204304 54 22 0.0 0.0 0.00 0.00 0.00 74 1007.4
20260504203804 54 22 0.0 0.0 0.00 0.00 0.00 74 1007.3
20260504203304 54 22 0.0 0.0 0.00 0.00 0.00 74 1007.3
20260504202804 54 292 0.0 0.0 0.00 0.00 0.00 73 1007.4
20260504202305 55 292 0.0 0.0 0.00 0.00 0.00 73 1007.5
20260504201804 55 292 0.0 0.0 0.00 0.00 0.00 73 1007.4
20260504201304 55 292 0.0 0.0 0.00 0.00 0.00 73 1007.5
20260504200804 55 292 0.0 0.0 0.00 0.00 0.00 74 1007.3
20260504200304 55 292 0.0 0.0 0.00 0.00 0.00 74 1007.6
20260504195804 55 292 0.0 2.0 0.00 0.00 0.00 74 1007.6
20260504195304 55 292 1.0 1.0 0.00 0.00 0.00 74 1007.4
20260504194804 55 292 1.0 2.0 0.00 0.00 0.00 74 1007.6
20260504194304 55 292 0.0 0.0 0.00 0.00 0.00 73 1007.4
20260504193804 55 0 0.0 0.0 0.00 0.00 0.00 73 1007.5
20260504193304 56 315 0.0 1.0 0.00 0.00 0.00 73 1007.5
20260504192804 56 292 1.0 1.0 0.00 0.00 0.00 73 1007.4
20260504192304 56 292 0.0 0.0 0.00 0.00 0.00 73 1007.3
20260504191804 56 337 0.0 1.0 0.00 0.00 0.00 73 1007.3
20260504191304 56 337 0.0 2.0 0.00 0.00 0.00 73 1007.4
20260504190804 56 337 0.0 0.0 0.00 0.00 0.00 72 1007.5
20260504190304 56 337 0.0 3.0 0.00 0.00 0.00 72 1007.3
20260504185804 57 292 2.0 3.0 0.00 0.00 0.00 72 1007.3
20260504185304 57 292 0.0 2.0 0.00 0.00 0.00 71 1007.2
20260504184804 57 292 2.0 3.0 0.00 0.00 0.00 71 1007.1
20260504184304 57 292 2.0 3.0 0.00 0.00 0.00 71 1007.1
20260504183804 57 292 1.0 2.0 0.00 0.00 0.00 70 1007.2
20260504183304 58 292 2.0 4.0 0.00 0.00 0.00 70 1007.2
20260504182804 58 292 2.0 4.0 0.00 0.00 0.00 69 1007.2
20260504182304 58 270 0.0 4.0 0.00 0.00 0.00 69 1007.2
20260504181804 59 270 2.0 4.0 0.00 0.00 0.00 69 1007.1
20260504181304 59 270 3.0 3.0 0.00 0.00 0.00 68 1006.9
20260504180804 60 292 1.0 2.0 0.00 0.00 0.00 68 1006.9
20260504180304 60 0 0.0 1.0 0.00 0.00 0.00 67 1006.8
20260504175804 60 292 0.0 0.0 0.00 0.00 0.00 67 1006.7
20260504175304 61 22 0.0 1.0 0.00 0.00 0.00 67 1006.7
20260504174804 61 22 0.0 0.0 0.00 0.00 0.00 67 1006.7
20260504174304 61 337 0.0 2.0 0.00 0.00 0.00 67 1006.8
20260504173804 61 270 2.0 2.0 0.00 0.00 0.00 67 1006.7
20260504173304 62 292 2.0 2.0 0.00 0.00 0.00 66 1006.7
20260504172804 62 337 1.0 2.0 0.00 0.00 0.00 66 1006.7
20260504172304 62 270 0.0 3.0 0.00 0.00 0.00 66 1006.6
20260504171804 62 292 3.0 5.0 0.00 0.00 0.00 66 1006.6
20260504171304 62 315 2.0 3.0 0.00 0.00 0.00 65 1006.6
20260504170804 63 270 0.0 6.0 0.00 0.00 0.00 65 1006.5
20260504170304 63 292 2.0 2.0 0.00 0.00 0.00 66 1006.5
20260504160304 64 270 1.0 3.0 0.00 0.00 0.00 63 1006.6
20260504150804 67 292 4.0 9.0 0.00 0.00 0.00 62 1006.4
20260504150304 66 270 2.0 7.0 0.00 0.00 0.00 62 1006.5
20260504141305 69 270 2.0 8.0 0.00 0.00 0.00 58 1006.4
20260504140805 69 270 5.0 10.0 0.00 0.00 0.00 57 1006.2
20260504140305 70 270 4.0 6.0 0.00 0.00 0.00 54 1006.2
20260504130805 70 270 2.0 4.0 0.00 0.00 0.00 53 1006.2
20260504130305 70 247 3.0 3.0 0.00 0.00 0.00 54 1006.2
20260504120305 71 270 0.0 4.0 0.00 0.00 0.00 54 1006.3
20260504110305 70 270 4.0 4.0 0.00 0.00 0.00 55 1006.2
20260504100305 69 270 5.0 5.0 0.00 0.00 0.00 57 1006.2
20260504081805 76 202 3.0 5.0 0.00 0.00 0.00 46 1005.6
20260504081305 78 180 0.0 4.0 0.00 0.00 0.00 46 1005.6
20260504080805 79 157 2.0 4.0 0.00 0.00 0.00 47 1005.6
20260504080305 78 180 1.0 4.0 0.00 0.00 0.00 47 1005.5
20260504070306 66 247 2.0 4.0 0.00 0.00 0.00 61 1005.7
20260504050306 60 202 0.0 0.0 0.00 0.00 0.00 66 1004.9
20260504045806 59 202 0.0 0.0 0.00 0.00 0.00 66 1005.0
20260504045306 59 202 0.0 0.0 0.00 0.00 0.00 66 1005.0
20260504044806 59 202 0.0 0.0 0.00 0.00 0.00 66 1005.1
20260504044306 59 180 0.0 0.0 0.00 0.00 0.00 66 1005.0
20260504043806 59 180 0.0 2.0 0.00 0.00 0.00 66 1005.1
20260504043306 58 225 0.0 0.0 0.00 0.00 0.00 66 1005.0
20260504042806 58 247 0.0 1.0 0.00 0.00 0.00 66 1005.0
20260504042306 58 270 0.0 2.0 0.00 0.00 0.00 65 1005.0
20260504041806 58 112 2.0 2.0 0.00 0.00 0.00 65 1004.9
20260504041306 58 202 0.0 4.0 0.00 0.00 0.00 65 1005.0
20260504040806 58 202 1.0 2.0 0.00 0.00 0.00 65 1004.8
20260504040306 58 225 0.0 0.0 0.00 0.00 0.00 65 1004.6
20260504035806 58 202 0.0 0.0 0.00 0.00 0.00 65 1004.6
20260504035306 58 180 0.0 0.0 0.00 0.00 0.00 65 1004.6
20260504034806 58 202 0.0 0.0 0.00 0.00 0.00 65 1004.5
20260504034306 58 157 0.0 0.0 0.00 0.00 0.00 65 1004.6
20260504033806 58 157 0.0 0.0 0.00 0.00 0.00 65 1004.5
20260504033306 58 157 0.0 0.0 0.00 0.00 0.00 64 1004.8
20260504032806 58 157 0.0 0.0 0.00 0.00 0.00 64 1004.7
20260504032306 58 202 0.0 0.0 0.00 0.00 0.00 64 1004.7
20260504031806 58 180 0.0 0.0 0.00 0.00 0.00 64 1004.6
20260504031306 58 180 0.0 0.0 0.00 0.00 0.00 64 1004.5
20260504030806 58 202 0.0 0.0 0.00 0.00 0.00 64 1004.6
20260504030306 58 180 0.0 0.0 0.00 0.00 0.00 65 1004.4
20260504025806 58 202 0.0 0.0 0.00 0.00 0.00 65 1004.4
20260504025306 57 202 0.0 0.0 0.00 0.00 0.00 65 1004.4
20260504024806 57 180 0.0 0.0 0.00 0.00 0.00 66 1004.1
20260504024306 57 180 0.0 0.0 0.00 0.00 0.00 66 1004.2
20260504023806 57 180 0.0 0.0 0.00 0.00 0.00 67 1004.3
20260504023306 57 202 0.0 0.0 0.00 0.00 0.00 67 1004.2
20260504022806 57 202 0.0 0.0 0.00 0.00 0.00 67 1004.3
20260504022306 56 157 0.0 0.0 0.00 0.00 0.00 68 1004.2
20260504021806 56 157 0.0 0.0 0.00 0.00 0.00 68 1004.1
20260504021306 56 157 0.0 0.0 0.00 0.00 0.00 69 1004.1
20260504020806 56 157 0.0 0.0 0.00 0.00 0.00 69 1004.1
20260504020306 56 157 0.0 0.0 0.00 0.00 0.00 69 1004.2
20260504015806 56 157 0.0 0.0 0.00 0.00 0.00 69 1004.2
20260504015306 56 180 0.0 0.0 0.00 0.00 0.00 69 1004.3
20260504014806 56 157 0.0 0.0 0.00 0.00 0.00 68 1004.3
20260504014306 56 157 0.0 0.0 0.00 0.00 0.00 68 1004.2
20260504013806 56 157 0.0 0.0 0.00 0.00 0.00 67 1004.4
20260504013306 56 157 0.0 0.0 0.00 0.00 0.00 67 1004.3
20260504012806 56 135 0.0 1.0 0.00 0.00 0.00 67 1004.4
20260504012306 56 135 0.0 1.0 0.00 0.00 0.00 67 1004.3
20260504011806 56 180 0.0 2.0 0.00 0.00 0.00 67 1004.4
20260504011306 56 180 0.0 2.0 0.00 0.00 0.00 67 1004.4
20260504010806 57 157 0.0 2.0 0.00 0.00 0.00 66 1004.4
20260504010306 57 157 0.0 1.0 0.00 0.00 0.00 66 1004.4
20260504005806 57 180 1.0 1.0 0.00 0.00 0.00 65 1004.4
20260504005306 57 180 0.0 1.0 0.00 0.00 0.00 66 1004.4
20260504004806 57 157 1.0 2.0 0.00 0.00 0.00 66 1004.3
20260504004306 57 180 0.0 0.0 0.00 0.00 0.00 64 1004.2
20260504003806 57 135 0.0 1.0 0.00 0.00 0.00 64 1004.1
20260504003307 57 180 1.0 1.0 0.00 0.00 0.00 63 1004.2
20260504002807 57 157 0.0 0.0 0.00 0.00 0.00 62 1004.2
20260504002306 57 112 0.0 0.0 0.00 0.00 0.00 62 1004.2
20260504001807 57 90 0.0 0.0 0.00 0.00 0.00 62 1004.1
20260504001307 57 67 0.0 1.0 0.00 0.00 0.00 62 1004.1
20260504000807 57 157 0.0 0.0 0.00 0.00 0.00 62 1004.1
20260504000307 57 270 0.0 1.0 0.00 0.00 0.00 62 1004.1
20260503235807 57 270 0.0 2.0 0.00 0.00 0.00 63 1004.0
20260503235307 57 270 1.0 2.0 0.00 0.00 0.00 63 1004.0
20260503234807 57 270 0.0 3.0 0.00 0.00 0.00 63 1004.0
20260503234307 57 270 0.0 2.0 0.00 0.00 0.00 63 1004.0
20260503233807 57 292 2.0 2.0 0.00 0.00 0.00 63 1004.0
20260503233307 57 270 0.0 2.0 0.00 0.00 0.00 63 1004.1
20260503232807 57 270 1.0 4.0 0.00 0.00 0.00 63 1004.1
20260503232307 58 292 2.0 3.0 0.00 0.00 0.00 63 1004.0
20260503231807 58 270 0.0 0.0 0.00 0.00 0.00 61 1003.9
20260503231307 58 157 0.0 2.0 0.00 0.00 0.00 61 1004.0
20260503230807 58 157 0.0 2.0 0.00 0.00 0.00 62 1004.1
20260503230307 58 180 1.0 2.0 0.00 0.00 0.00 62 1004.2
20260503225807 58 180 1.0 3.0 0.00 0.00 0.00 62 1004.1
20260503225307 58 180 2.0 6.0 0.00 0.00 0.00 63 1004.3
20260503224807 58 202 2.0 4.0 0.00 0.00 0.00 62 1004.1
20260503224307 58 202 3.0 4.0 0.00 0.00 0.00 61 1004.1
20260503223807 59 202 2.0 2.0 0.00 0.00 0.00 59 1004.1
20260503223307 59 202 0.0 0.0 0.00 0.00 0.00 58 1004.0
20260503222807 60 180 0.0 0.0 0.00 0.00 0.00 57 1003.9
20260503222307 60 180 0.0 0.0 0.00 0.00 0.00 57 1004.0
20260503221807 60 202 0.0 0.0 0.00 0.00 0.00 57 1003.9
20260503221307 60 180 0.0 0.0 0.00 0.00 0.00 56 1004.0
20260503220807 60 180 0.0 0.0 0.00 0.00 0.00 56 1004.0
20260503220308 60 157 0.0 0.0 0.00 0.00 0.00 55 1004.0
20260503215308 60 180 0.0 0.0 0.00 0.00 0.00 54 1004.1
20260503214807 61 157 0.0 0.0 0.00 0.00 0.00 54 1004.3
20260503214307 61 135 0.0 0.0 0.00 0.00 0.00 53 1004.3
20260503213307 61 135 0.0 0.0 0.00 0.00 0.00 52 1004.2
20260503212308 62 157 0.0 0.0 0.00 0.00 0.00 52 1004.1
20260503211807 62 180 0.0 0.0 0.00 0.00 0.00 52 1004.1
20260503211307 62 157 0.0 0.0 0.00 0.00 0.00 52 1004.4
20260503210807 62 180 0.0 0.0 0.00 0.00 0.00 52 1004.5
20260503210308 63 180 0.0 0.0 0.00 0.00 0.00 52 1004.4